Current weather by "City, St" or "zip code"  
 

Current Conditions: Fort Benning, GA

Fog/Mist


39.0 F

Last Updated on Apr 23 2021, 5:56 am EDT
Humidity: 91%
Wind Speed: N 0.0 mph
Barometer 30.13 in
Dewpoint: 36.3 F
Visibility: 2.75 mi
Precip: --
Heat Index: NA
Wind Chill: NA
Current conditions at:

Fort Benning, GA (KLSF)

Lat: 32.33333 Lon: 84.83333

Local Radar Image active severe weather and emergency alerts image image weather storm and storm spotter reports image weather observation monitoring service image
Local
Radar
Active
Alerts
Storm Reports Obs
Monitoring

Sign-up For Email & Text Message Weather Alert Notification Services



Advertise Here

Observation History for Fort Benning, GA


Time Wind
(mph)
Vis
(mi)
Weather Precip (in) Temperature (F) Relative
Humidity
Wind
Chill
(F)
Heat
Index
(F)
Pressure
Air Dwpt altimeter
(in)
sea level
(mb)
Rmks
5:56 am EDT N 0.0 2.75 Fog/Mist -- 39.0 36.3 91% NA NA 30.13 1020.8
4:56 am EDT N 0.0 10.00 Fair -- 40.0 37.9 91% NA NA 30.14 1021.2
3:56 am EDT N 0.0 10.00 Fair -- 41.0 38.7 91% NA NA 30.14 1021.2
2:56 am EDT N 0.0 10.00 Fair -- 40.0 37.8 91% NA NA 30.16 1021.8
1:56 am EDT N 0.0 10.00 Fair -- 42.0 39.6 90% NA NA 30.16 1021.8
12:56 am EDT N 0.0 10.00 Fair -- 43.0 40.1 90% NA NA 30.16 1021.8
11:56 pm EDT N 0.0 10.00 Fair -- 45.0 40.6 84% NA NA 30.16 1021.8
10:56 pm EDT N 0.0 10.00 Fair -- 47.0 41.4 79% NA NA 30.15 1021.5
9:56 pm EDT N 0.0 10.00 Fair -- 48.0 39.9 73% NA NA 30.15 1021.5
8:56 pm EDT N 0.0 10.00 Fair -- 51.0 39.6 66% NA NA 30.13 1020.9
7:56 pm EDT N 0.0 10.00 Fair -- 55.0 40.6 59% NA NA 30.11 1020.2
6:56 pm EDT N 0.0 10.00 Fair -- 66.0 25.2 21% NA NA 30.12 1020.5
5:56 pm EDT NW 6.9 10.00 Fair -- 67.0 26.1 21% NA NA 30.12 1020.5
4:56 pm EDT N 0.0 10.00 Fair -- 67.0 24.6 20% NA NA 30.14 1021.2
3:56 pm EDT S 3.5 10.00 Fair -- 65.0 23.0 20% NA NA 30.16 1021.8
2:56 pm EDT NE 6.9 10.00 Fair -- 64.0 24.3 22% NA NA 30.18 1022.5
12:56 pm EDT NW 4.6 10.00 Fair -- 60.0 21.9 23% 60 NA 30.23 1024.2
11:56 am EDT N 6.9 10.00 Fair -- 57.0 19.9 23% 56 NA 30.26 1025.3
10:56 am EDT N 8.1 10.00 Mostly Cloudy -- 55.0 21.6 27% 53 NA 30.25 1024.9
9:56 am EDT N 8.1 10.00 Overcast -- 51.0 27.5 40% 48 NA 30.26 1025.3
8:56 am EDT N 5.8 10.00 Overcast -- 47.0 30.4 53% 44 NA 30.25 1024.9
7:56 am EDT N 0.0 10.00 Overcast -- 38.0 35.1 89% NA NA 30.22 1023.9
6:56 am EDT N 0.0 10.00 Fair -- 35.0 31.8 90% NA NA 30.19 1022.9

Regional Weather Observation


Fort Benning, GA (KLSF)

Fog/Mist
39.0 F

Pine Mountain Harris County Airport, GA (KPIM)

Fair
40.0 F

Auburn-Opelika Airport, AL (KAUO)

Fair
49.0 F

Butler Municipal Airport, GA (K6A1)

Fair
43.0 F

Thomaston, Thomaston-Upson County Airport, GA (KOPN)

Fair
41.0 F

Americus Souther Field Airport, GA (KACJ)

Fair
45.0 F

Advertise Here


Advertise Here